| time (UTC) | temp C | wind direction | speed KPH | gust KPH | rain 1hr cm | rain 24hr cm | rain mn cm | humidity % | barometer mb |
| 20260503030058 | 13 | 215 | 3.2 | 12.9 | 0.00 | 0.00 | 0.00 | 47 | 1015.7 |
| 20260503024606 | 15 | 228 | 12.9 | 19.3 | 0.00 | 0.00 | 0.00 | 44 | 1015.5 |
| 20260503023059 | 16 | 246 | 12.9 | 17.7 | 0.00 | 0.00 | 0.00 | 41 | 1015.8 |
| 20260503021557 | 17 | 254 | 6.4 | 14.5 | 0.00 | 0.00 | 0.00 | 37 | 1015.7 |
| 20260503020101 | 17 | 0 | 0.0 | 6.4 | 0.00 | 0.00 | 0.00 | 37 | 1015.4 |
| 20260503014559 | 17 | 0 | 0.0 | 4.8 | 0.00 | 0.00 | 0.00 | 36 | 1015.3 |
| 20260503013104 | 17 | 0 | 0.0 | 3.2 | 0.00 | 0.00 | 0.00 | 37 | 1015.6 |
| 20260503011607 | 18 | 103 | 3.2 | 6.4 | 0.00 | 0.00 | 0.00 | 38 | 1015.5 |
| 20260503010100 | 18 | 0 | 0.0 | 6.4 | 0.00 | 0.00 | 0.00 | 36 | 1015.8 |
| 20260503004559 | 18 | 103 | 1.6 | 11.3 | 0.00 | 0.00 | 0.00 | 35 | 1015.8 |
| 20260503003102 | 19 | 103 | 3.2 | 17.7 | 0.00 | 0.00 | 0.00 | 35 | 1015.9 |
| 20260503001619 | 19 | 144 | 16.1 | 22.5 | 0.00 | 0.00 | 0.00 | 35 | 1015.9 |
| 20260503000121 | 18 | 112 | 3.2 | 9.7 | 0.00 | 0.00 | 0.00 | 36 | 1015.9 |
| 20260502234605 | 18 | 119 | 3.2 | 14.5 | 0.00 | 0.00 | 0.00 | 37 | 1016.1 |
| 20260502233110 | 18 | 85 | 3.2 | 12.9 | 0.00 | 0.00 | 0.00 | 35 | 1016.3 |
| 20260502231619 | 19 | 63 | 9.7 | 19.3 | 0.00 | 0.00 | 0.00 | 35 | 1016.6 |
| 20260502224603 | 19 | 128 | 8.0 | 17.7 | 0.00 | 0.00 | 0.00 | 35 | 1016.7 |
| 20260502223100 | 19 | 0 | 0.0 | 8.0 | 0.00 | 0.00 | 0.00 | 35 | 1017.0 |
| 20260502221603 | 19 | 145 | 9.7 | 17.7 | 0.00 | 0.00 | 0.00 | 34 | 1017.2 |
| 20260502220100 | 19 | 322 | 1.6 | 6.4 | 0.00 | 0.00 | 0.00 | 36 | 1017.5 |
| 20260502214558 | 18 | 101 | 3.2 | 11.3 | 0.00 | 0.00 | 0.00 | 36 | 1017.7 |
| 20260502213059 | 18 | 319 | 3.2 | 19.3 | 0.00 | 0.00 | 0.00 | 36 | 1017.8 |
| 20260502211601 | 19 | 5 | 4.8 | 8.0 | 0.00 | 0.00 | 0.00 | 35 | 1017.9 |
| 20260502210100 | 20 | 157 | 4.8 | 17.7 | 0.00 | 0.00 | 0.00 | 35 | 1018.1 |
| 20260502204557 | 19 | 111 | 3.2 | 16.1 | 0.00 | 0.00 | 0.00 | 36 | 1018.2 |
| 20260502203059 | 18 | 111 | 6.4 | 14.5 | 0.00 | 0.00 | 0.00 | 37 | 1018.4 |
| 20260502201604 | 18 | 153 | 4.8 | 16.1 | 0.00 | 0.00 | 0.00 | 36 | 1018.5 |
| 20260502200058 | 18 | 106 | 3.2 | 12.9 | 0.00 | 0.00 | 0.00 | 38 | 1018.6 |
| 20260502194616 | 17 | 349 | 6.4 | 12.9 | 0.00 | 0.00 | 0.00 | 39 | 1018.6 |
| 20260502193108 | 18 | 102 | 3.2 | 14.5 | 0.00 | 0.00 | 0.00 | 37 | 1018.8 |
| 20260502191612 | 18 | 103 | 6.4 | 19.3 | 0.00 | 0.00 | 0.00 | 37 | 1019.0 |
| 20260502190058 | 17 | 82 | 4.8 | 17.7 | 0.00 | 0.00 | 0.00 | 39 | 1019.3 |
| 20260502184610 | 17 | 355 | 3.2 | 14.5 | 0.00 | 0.00 | 0.00 | 38 | 1019.4 |
| 20260502183058 | 17 | 51 | 3.2 | 17.7 | 0.00 | 0.00 | 0.00 | 40 | 1019.6 |
| 20260502181559 | 17 | 24 | 6.4 | 14.5 | 0.00 | 0.00 | 0.00 | 40 | 1019.7 |
| 20260502163059 | 16 | 342 | 6.4 | 16.1 | 0.00 | 0.00 | 0.00 | 43 | 1020.3 |
| 20260502161624 | 15 | 37 | 8.0 | 16.1 | 0.00 | 0.00 | 0.00 | 46 | 1020.4 |
| 20260502160136 | 15 | 43 | 6.4 | 16.1 | 0.00 | 0.00 | 0.00 | 45 | 1020.4 |
| 20260502151610 | 14 | 63 | 6.4 | 17.7 | 0.00 | 0.00 | 0.00 | 46 | 1020.3 |
| 20260502150107 | 13 | 69 | 9.7 | 19.3 | 0.00 | 0.00 | 0.00 | 46 | 1020.1 |
| 20260502130121 | 8 | 9 | 4.8 | 9.7 | 0.00 | 0.00 | 0.00 | 61 | 1019.3 |
| 20260502123126 | 6 | 355 | 4.8 | 9.7 | 0.00 | 0.00 | 0.00 | 66 | 1019.0 |
| 20260502123048 | 6 | 355 | 3.2 | 9.7 | 0.00 | 0.00 | 0.00 | 67 | 1017.7 |
| 20260502121609 | 5 | 355 | 4.8 | 9.7 | 0.00 | 0.00 | 0.00 | 66 | 1018.8 |
| 20260502121548 | 5 | 350 | 4.8 | 9.7 | 0.00 | 0.00 | 0.00 | 67 | 1017.5 |
| 20260502120129 | 6 | 343 | 4.8 | 12.9 | 0.00 | 0.00 | 0.00 | 63 | 1018.4 |
| 20260502120104 | 6 | 343 | 3.2 | 12.9 | 0.00 | 0.00 | 0.00 | 64 | 1017.3 |
| 20260502114626 | 7 | 346 | 6.4 | 12.9 | 0.00 | 0.00 | 0.00 | 63 | 1017.0 |
| 20260502114558 | 7 | 347 | 4.8 | 12.9 | 0.00 | 0.00 | 0.00 | 62 | 1018.1 |
| 20260502113058 | 7 | 330 | 4.8 | 12.9 | 0.00 | 0.00 | 0.00 | 61 | 1018.0 |
| 20260502113053 | 7 | 331 | 4.8 | 12.9 | 0.00 | 0.00 | 0.00 | 61 | 1016.9 |
| 20260502111558 | 7 | 355 | 8.0 | 17.7 | 0.00 | 0.00 | 0.00 | 61 | 1017.7 |
| 20260502111553 | 7 | 346 | 6.4 | 17.7 | 0.00 | 0.00 | 0.00 | 61 | 1016.7 |
| 20260502110058 | 8 | 332 | 8.0 | 16.1 | 0.00 | 0.00 | 0.00 | 60 | 1017.7 |
| 20260502110056 | 8 | 330 | 8.0 | 16.1 | 0.00 | 0.00 | 0.00 | 61 | 1016.8 |
| 20260502104559 | 8 | 341 | 8.0 | 16.1 | 0.00 | 0.00 | 0.00 | 58 | 1017.4 |
| 20260502104556 | 8 | 344 | 9.7 | 16.1 | 0.00 | 0.00 | 0.00 | 59 | 1016.5 |
| 20260502103059 | 9 | 297 | 11.3 | 20.9 | 0.00 | 0.00 | 0.00 | 56 | 1016.7 |
| 20260502101615 | 9 | 311 | 9.7 | 19.3 | 0.00 | 0.00 | 0.00 | 55 | 1015.7 |
| 20260502101604 | 9 | 298 | 11.3 | 19.3 | 0.00 | 0.00 | 0.00 | 55 | 1016.4 |
| 20260502100112 | 8 | 301 | 6.4 | 12.9 | 0.00 | 0.00 | 0.00 | 60 | 1015.8 |
| 20260502080104 | 4 | 212 | 1.6 | 4.8 | 0.00 | 0.00 | 0.00 | 56 | 1015.9 |
| 20260502071517 | 7 | 212 | 3.2 | 4.8 | 0.00 | 0.00 | 0.00 | 50 | 1015.2 |
| 20260502070034 | 6 | 212 | 4.8 | 9.7 | 0.00 | 0.00 | 0.00 | 50 | 1015.2 |
| 20260502064601 | 7 | 255 | 3.2 | 9.7 | 0.00 | 0.00 | 0.00 | 46 | 1016.0 |
| 20260502064547 | 8 | 255 | 3.2 | 6.4 | 0.00 | 0.00 | 0.00 | 46 | 1015.1 |
| 20260502063102 | 8 | 252 | 3.2 | 8.0 | 0.00 | 0.00 | 0.00 | 45 | 1015.8 |
| 20260502063053 | 8 | 252 | 3.2 | 6.4 | 0.00 | 0.00 | 0.00 | 46 | 1015.0 |
| 20260502061602 | 8 | 248 | 4.8 | 8.0 | 0.00 | 0.00 | 0.00 | 44 | 1015.7 |
| 20260502061545 | 8 | 247 | 4.8 | 8.0 | 0.00 | 0.00 | 0.00 | 44 | 1015.0 |
| 20260502060119 | 5 | 235 | 3.2 | 8.0 | 0.00 | 0.00 | 0.00 | 49 | 1015.7 |
| 20260502060047 | 5 | 235 | 3.2 | 8.0 | 0.00 | 0.00 | 0.00 | 49 | 1015.0 |
| 20260502054605 | 5 | 237 | 1.6 | 6.4 | 0.00 | 0.00 | 0.00 | 48 | 1015.6 |
| 20260502054545 | 5 | 237 | 1.6 | 6.4 | 0.00 | 0.00 | 0.00 | 48 | 1014.9 |
| 20260502053101 | 6 | 242 | 3.2 | 6.4 | 0.00 | 0.00 | 0.00 | 48 | 1015.5 |
| 20260502053050 | 6 | 242 | 4.8 | 6.4 | 0.00 | 0.00 | 0.00 | 48 | 1014.9 |
| 20260502051606 | 5 | 240 | 4.8 | 6.4 | 0.00 | 0.00 | 0.00 | 49 | 1015.4 |
| 20260502051544 | 5 | 240 | 4.8 | 6.4 | 0.00 | 0.00 | 0.00 | 49 | 1014.6 |
| 20260502050108 | 5 | 249 | 4.8 | 11.3 | 0.00 | 0.00 | 0.00 | 45 | 1015.5 |
| 20260502050047 | 5 | 249 | 4.8 | 8.0 | 0.00 | 0.00 | 0.00 | 45 | 1014.6 |
| 20260502044606 | 7 | 275 | 6.4 | 9.7 | 0.00 | 0.00 | 0.00 | 39 | 1015.7 |
| 20260502044544 | 7 | 275 | 6.4 | 9.7 | 0.00 | 0.00 | 0.00 | 40 | 1014.7 |
| 20260502043122 | 7 | 261 | 3.2 | 9.7 | 0.00 | 0.00 | 0.00 | 43 | 1015.7 |
| 20260502043117 | 7 | 261 | 4.8 | 6.4 | 0.00 | 0.00 | 0.00 | 44 | 1014.9 |
| 20260502041610 | 8 | 283 | 3.2 | 6.4 | 0.00 | 0.00 | 0.00 | 39 | 1015.7 |
| 20260502041559 | 8 | 298 | 3.2 | 6.4 | 0.00 | 0.00 | 0.00 | 39 | 1014.8 |
| 20260502040108 | 9 | 319 | 4.8 | 6.4 | 0.00 | 0.00 | 0.00 | 38 | 1015.6 |
| 20260502040049 | 9 | 319 | 3.2 | 6.4 | 0.00 | 0.00 | 0.00 | 38 | 1014.7 |
| 20260502034607 | 10 | 322 | 0.0 | 4.8 | 0.00 | 0.00 | 0.00 | 41 | 1015.6 |
| 20260502034550 | 10 | 322 | 1.6 | 4.8 | 0.00 | 0.00 | 0.00 | 42 | 1014.6 |
| 20260502033107 | 11 | 323 | 0.0 | 4.8 | 0.00 | 0.00 | 0.00 | 40 | 1015.5 |
| 20260502033051 | 11 | 323 | 1.6 | 4.8 | 0.00 | 0.00 | 0.00 | 40 | 1014.5 |
| 20260502031602 | 13 | 323 | 4.8 | 8.0 | 0.00 | 0.00 | 0.00 | 35 | 1015.3 |
| 20260502031549 | 13 | 323 | 3.2 | 8.0 | 0.00 | 0.00 | 0.00 | 35 | 1014.3 |